Time,TemperatureF,DewpointF,PressureIn,WindDirection,WindDirectionDegrees,WindSpeedMPH,WindSpeedGustMPH,Humidity,HourlyPrecipIn,Conditions,Clouds,dailyrainin,SoftwareType,DateUTC
2013-03-09 00:00:00,30.6,23.3,30.42,ENE,63,0.0,2.0,74,0.00,,SKC,0.03,VWS V14.01,2013-03-09 05:00:00,
2013-03-09 00:01:00,30.6,23.3,30.42,ENE,63,0.0,2.0,74,0.00,,SKC,0.03,VWS V14.01,2013-03-09 05:01:00,
2013-03-09 00:06:00,30.6,23.3,30.42,ENE,63,0.0,1.0,74,0.00,,SKC,0.00,VWS V14.01,2013-03-09 05:06:00,
2013-03-09 00:11:00,30.4,23.1,30.42,ENE,63,0.0,2.0,74,0.00,,SKC,0.00,VWS V14.01,2013-03-09 05:11:00,
2013-03-09 00:16:00,30.6,23.3,30.42,ENE,63,2.0,2.0,74,0.00,,SKC,0.00,VWS V14.01,2013-03-09 05:16:00,
2013-03-09 00:21:00,30.6,23.3,30.42,ENE,63,0.0,2.0,74,0.00,,SKC,0.00,VWS V14.01,2013-03-09 05:21:00,
2013-03-09 00:26:00,30.6,23.3,30.42,ENE,63,0.0,2.0,74,0.00,,SKC,0.00,VWS V14.01,2013-03-09 05:26:00,
2013-03-09 00:31:00,30.7,23.4,30.42,ENE,63,0.0,2.0,74,0.00,,SKC,0.00,VWS V14.01,2013-03-09 05:31:00,
2013-03-09 00:36:00,30.7,23.4,30.41,ENE,63,0.0,2.0,74,0.00,,SKC,0.00,VWS V14.01,2013-03-09 05:36:00,
2013-03-09 00:41:00,30.7,23.4,30.41,ENE,63,2.0,3.0,74,0.00,,SKC,0.00,VWS V14.01,2013-03-09 05:41:00,
2013-03-09 00:46:00,30.9,23.6,30.41,ENE,63,0.0,3.0,74,0.00,,SKC,0.00,VWS V14.01,2013-03-09 05:46:00,
2013-03-09 00:51:00,31.0,23.7,30.40,ESE,118,0.0,3.0,74,0.00,,SKC,0.00,VWS V14.01,2013-03-09 05:51:00,
2013-03-09 00:56:00,31.2,23.6,30.40,East,86,0.0,3.0,73,0.00,,SKC,0.00,VWS V14.01,2013-03-09 05:56:00,
2013-03-09 01:02:00,31.3,23.7,30.40,East,86,2.0,3.0,73,0.00,,SKC,0.00,VWS V14.01,2013-03-09 06:02:00,
2013-03-09 01:07:00,31.5,23.9,30.39,East,86,0.0,3.0,73,0.00,,SKC,0.00,VWS V14.01,2013-03-09 06:07:00,
2013-03-09 01:12:00,31.5,23.9,30.39,East,85,0.0,3.0,73,0.00,,SKC,0.00,VWS V14.01,2013-03-09 06:12:00,
2013-03-09 01:17:00,31.5,23.9,30.39,East,85,0.0,3.0,73,0.00,,SKC,0.00,VWS V14.01,2013-03-09 06:17:00,
2013-03-09 01:22:00,31.5,23.9,30.39,East,86,0.0,4.0,73,0.00,,SKC,0.00,VWS V14.01,2013-03-09 06:22:00,
2013-03-09 01:27:00,31.6,24.0,30.39,East,86,0.0,4.0,73,0.00,,SKC,0.00,VWS V14.01,2013-03-09 06:27:00,
2013-03-09 01:32:00,31.6,24.0,30.39,East,86,0.0,4.0,73,0.00,,SKC,0.00,VWS V14.01,2013-03-09 06:32:00,
2013-03-09 01:37:00,31.6,24.0,30.39,East,86,0.0,2.0,73,0.00,,SKC,0.00,VWS V14.01,2013-03-09 06:37:00,
2013-03-09 01:42:00,31.8,24.1,30.39,East,86,0.0,2.0,73,0.00,,SKC,0.00,VWS V14.01,2013-03-09 06:42:00,
2013-03-09 01:47:00,31.9,23.9,30.39,East,86,2.0,3.0,72,0.00,,SKC,0.00,VWS V14.01,2013-03-09 06:47:00,
2013-03-09 01:53:00,31.9,23.9,30.39,East,86,0.0,3.0,72,0.00,,SKC,0.00,VWS V14.01,2013-03-09 06:53:00,
2013-03-09 01:58:00,31.9,23.9,30.39,East,86,0.0,3.0,72,0.00,,SKC,0.00,VWS V14.01,2013-03-09 06:58:00,
2013-03-09 02:03:00,31.9,24.2,30.39,East,86,0.0,3.0,73,0.00,,SKC,0.00,VWS V14.01,2013-03-09 07:03:00,
2013-03-09 02:08:00,32.1,24.8,30.39,East,86,0.0,1.0,74,0.00,,SKC,0.00,VWS V14.01,2013-03-09 07:08:00,
2013-03-09 02:13:00,32.1,24.4,30.39,East,86,0.0,2.0,73,0.00,,SKC,0.00,VWS V14.01,2013-03-09 07:13:00,
2013-03-09 02:18:00,31.9,24.2,30.39,East,86,0.0,3.0,73,0.00,,SKC,0.00,VWS V14.01,2013-03-09 07:18:00,
2013-03-09 02:23:00,32.1,24.1,30.39,East,86,0.0,3.0,72,0.00,,SKC,0.00,VWS V14.01,2013-03-09 07:23:00,
2013-03-09 02:28:00,32.2,24.2,30.39,East,86,0.0,3.0,72,0.00,,SKC,0.00,VWS V14.01,2013-03-09 07:28:00,
2013-03-09 02:33:00,32.2,24.2,30.38,East,86,1.0,3.0,72,0.00,,SKC,0.00,VWS V14.01,2013-03-09 07:33:00,
2013-03-09 02:38:00,32.4,24.4,30.38,ESE,111,1.0,4.0,72,0.00,,SKC,0.00,VWS V14.01,2013-03-09 07:38:00,
2013-03-09 02:43:00,32.4,24.4,30.38,East,86,1.0,4.0,72,0.00,,SKC,0.00,VWS V14.01,2013-03-09 07:43:00,
2013-03-09 02:48:00,32.4,24.4,30.37,East,86,1.0,4.0,72,0.00,,SKC,0.00,VWS V14.01,2013-03-09 07:48:00,
2013-03-09 02:53:00,32.4,24.4,30.37,East,86,1.0,4.0,72,0.00,,SKC,0.00,VWS V14.01,2013-03-09 07:53:00,
2013-03-09 02:58:00,32.5,24.5,30.37,East,86,0.0,4.0,72,0.00,,SKC,0.00,VWS V14.01,2013-03-09 07:58:00,
2013-03-09 03:03:00,32.5,24.5,30.36,East,86,0.0,0.0,72,0.00,,SKC,0.00,VWS V14.01,2013-03-09 08:03:00,
2013-03-09 03:08:00,32.5,24.5,30.36,NE,46,0.0,4.0,72,0.00,,SKC,0.00,VWS V14.01,2013-03-09 08:08:00,
2013-03-09 03:14:00,32.5,24.5,30.36,ENE,63,0.0,4.0,72,0.00,,SKC,0.00,VWS V14.01,2013-03-09 08:14:00,
2013-03-09 03:19:00,32.5,24.5,30.36,ENE,63,1.0,4.0,72,0.00,,SKC,0.00,VWS V14.01,2013-03-09 08:19:00,
2013-03-09 03:24:00,32.5,24.5,30.36,ENE,69,0.0,4.0,72,0.00,,SKC,0.00,VWS V14.01,2013-03-09 08:24:00,
2013-03-09 03:29:00,32.4,24.4,30.36,ENE,69,0.0,4.0,72,0.00,,SKC,0.00,VWS V14.01,2013-03-09 08:29:00,
2013-03-09 03:34:00,32.4,24.7,30.35,ENE,69,0.0,2.0,73,0.00,,SKC,0.00,VWS V14.01,2013-03-09 08:34:00,
2013-03-09 03:39:00,32.2,24.5,30.35,ENE,69,0.0,2.0,73,0.00,,SKC,0.00,VWS V14.01,2013-03-09 08:39:00,
2013-03-09 03:44:00,32.1,24.8,30.35,ENE,69,0.0,3.0,74,0.00,,SKC,0.00,VWS V14.01,2013-03-09 08:44:00,
2013-03-09 03:49:00,31.9,24.6,30.34,ENE,69,0.0,3.0,74,0.00,,SKC,0.00,VWS V14.01,2013-03-09 08:49:00,
2013-03-09 03:54:00,31.8,24.8,30.34,ENE,69,0.0,3.0,75,0.00,,SKC,0.00,VWS V14.01,2013-03-09 08:54:00,
2013-03-09 03:59:00,32.1,25.1,30.34,ENE,69,0.0,3.0,75,0.00,,SKC,0.00,VWS V14.01,2013-03-09 08:59:00,
2013-03-09 04:04:00,31.9,24.9,30.34,ENE,69,0.0,1.0,75,0.00,,SKC,0.00,VWS V14.01,2013-03-09 09:04:00,
2013-03-09 04:10:00,32.1,25.1,30.34,ESE,115,1.0,4.0,75,0.00,,SKC,0.00,VWS V14.01,2013-03-09 09:10:00,
2013-03-09 04:15:00,32.1,25.1,30.34,ESE,103,0.0,4.0,75,0.00,,SKC,0.00,VWS V14.01,2013-03-09 09:15:00,
2013-03-09 04:20:00,32.2,25.2,30.33,East,91,3.0,4.0,75,0.00,,SKC,0.00,VWS V14.01,2013-03-09 09:20:00,
2013-03-09 04:25:00,32.4,25.4,30.33,East,92,0.0,4.0,75,0.00,,SKC,0.00,VWS V14.01,2013-03-09 09:25:00,
2013-03-09 04:30:00,32.4,25.4,30.33,East,93,3.0,4.0,75,0.00,,SKC,0.00,VWS V14.01,2013-03-09 09:30:00,
2013-03-09 04:35:00,32.5,25.5,30.32,East,85,0.0,4.0,75,0.00,,SKC,0.00,VWS V14.01,2013-03-09 09:35:00,
2013-03-09 04:40:00,32.7,25.7,30.32,ESE,106,0.0,5.0,75,0.00,,SKC,0.00,VWS V14.01,2013-03-09 09:40:00,
2013-03-09 04:45:00,32.8,25.8,30.32,ESE,116,3.0,5.0,75,0.00,,SKC,0.00,VWS V14.01,2013-03-09 09:45:00,
2013-03-09 04:50:00,32.9,25.9,30.33,East,96,2.0,5.0,75,0.00,,SKC,0.00,VWS V14.01,2013-03-09 09:50:00,
2013-03-09 04:55:00,33.1,26.4,30.33,East,82,0.0,5.0,76,0.00,,SKC,0.00,VWS V14.01,2013-03-09 09:55:00,
2013-03-09 05:00:00,32.9,26.2,30.33,East,98,1.0,5.0,76,0.00,,SKC,0.00,VWS V14.01,2013-03-09 10:00:00,
2013-03-09 05:05:00,32.9,26.2,30.32,East,92,2.0,3.0,76,0.00,,SKC,0.00,VWS V14.01,2013-03-09 10:05:00,
2013-03-09 05:10:00,33.1,26.4,30.32,East,89,0.0,4.0,76,0.00,,SKC,0.00,VWS V14.01,2013-03-09 10:10:00,
2013-03-09 05:15:00,33.1,26.0,30.32,East,92,0.0,4.0,75,0.00,,SKC,0.00,VWS V14.01,2013-03-09 10:15:00,
2013-03-09 05:20:00,33.1,26.4,30.32,East,91,1.0,5.0,76,0.00,,SKC,0.00,VWS V14.01,2013-03-09 10:20:00,
2013-03-09 05:25:00,33.2,26.1,30.32,ESE,112,3.0,5.0,75,0.00,,SKC,0.00,VWS V14.01,2013-03-09 10:25:00,
2013-03-09 05:31:00,33.4,26.3,30.32,East,101,3.0,7.0,75,0.00,,SKC,0.00,VWS V14.01,2013-03-09 10:31:00,
2013-03-09 05:36:00,33.5,26.4,30.32,East,94,1.0,7.0,75,0.00,,SKC,0.00,VWS V14.01,2013-03-09 10:36:00,
2013-03-09 05:41:00,33.7,26.6,30.32,ESE,113,1.0,7.0,75,0.00,,SKC,0.00,VWS V14.01,2013-03-09 10:41:00,
2013-03-09 05:46:00,33.8,26.7,30.32,ESE,120,0.0,7.0,75,0.00,,SKC,0.00,VWS V14.01,2013-03-09 10:46:00,
2013-03-09 05:51:00,33.8,26.4,30.32,ESE,105,1.0,7.0,74,0.00,,SKC,0.00,VWS V14.01,2013-03-09 10:51:00,
2013-03-09 05:56:00,34.0,26.6,30.32,East,100,0.0,7.0,74,0.00,,SKC,0.00,VWS V14.01,2013-03-09 10:56:00,
2013-03-09 06:01:00,34.0,26.3,30.32,East,99,2.0,8.0,73,0.00,,SKC,0.00,VWS V14.01,2013-03-09 11:01:00,
2013-03-09 06:06:00,34.1,26.4,30.31,ESE,107,2.0,6.0,73,0.00,,SKC,0.00,VWS V14.01,2013-03-09 11:06:00,
2013-03-09 06:11:00,34.1,26.4,30.31,SE,127,0.0,6.0,73,0.00,,SKC,0.00,VWS V14.01,2013-03-09 11:11:00,
2013-03-09 06:16:00,34.3,26.6,30.31,SE,125,1.0,6.0,73,0.00,,SKC,0.00,VWS V14.01,2013-03-09 11:16:00,
2013-03-09 06:21:00,34.3,26.2,30.32,ESE,120,1.0,9.0,72,0.00,,SKC,0.00,VWS V14.01,2013-03-09 11:21:00,
2013-03-09 06:27:00,34.3,26.2,30.32,ESE,117,3.0,9.0,72,0.00,,SKC,0.00,VWS V14.01,2013-03-09 11:27:00,
2013-03-09 06:32:00,34.3,26.2,30.32,ESE,117,1.0,9.0,72,0.00,,SKC,0.00,VWS V14.01,2013-03-09 11:32:00,
2013-03-09 06:37:00,34.3,26.2,30.32,ESE,122,1.0,4.0,72,0.00,,SKC,0.00,VWS V14.01,2013-03-09 11:37:00,
2013-03-09 06:42:00,34.3,26.2,30.32,ESE,103,2.0,6.0,72,0.00,,SKC,0.00,VWS V14.01,2013-03-09 11:42:00,
2013-03-09 06:47:00,34.1,26.4,30.32,ESE,111,3.0,6.0,73,0.00,,SKC,0.00,VWS V14.01,2013-03-09 11:47:00,
2013-03-09 06:52:00,34.3,26.2,30.32,SE,146,0.0,7.0,72,0.00,,SKC,0.00,VWS V14.01,2013-03-09 11:52:00,
2013-03-09 06:57:00,34.3,26.6,30.32,SE,127,3.0,7.0,73,0.00,,SKC,0.00,VWS V14.01,2013-03-09 11:57:00,
2013-03-09 07:02:00,34.3,26.2,30.32,SE,143,0.0,7.0,72,0.00,,SKC,0.00,VWS V14.01,2013-03-09 12:02:00,
2013-03-09 07:07:00,34.3,26.2,30.33,ESE,115,2.0,6.0,72,0.00,,SKC,0.00,VWS V14.01,2013-03-09 12:07:00,
2013-03-09 07:12:00,34.4,26.3,30.33,ESE,120,3.0,6.0,72,0.00,,SKC,0.00,VWS V14.01,2013-03-09 12:12:00,
2013-03-09 07:17:00,34.4,26.3,30.33,SE,129,2.0,6.0,72,0.00,,SKC,0.00,VWS V14.01,2013-03-09 12:17:00,
2013-03-09 07:22:00,34.4,26.3,30.33,SE,128,1.0,6.0,72,0.00,,SKC,0.00,VWS V14.01,2013-03-09 12:22:00,
2013-03-09 07:27:00,34.4,26.3,30.33,ESE,121,3.0,6.0,72,0.00,,SKC,0.00,VWS V14.01,2013-03-09 12:27:00,
2013-03-09 07:33:00,34.4,26.7,30.33,ESE,123,3.0,6.0,73,0.00,,SKC,0.00,VWS V14.01,2013-03-09 12:33:00,
2013-03-09 07:38:00,34.4,26.7,30.33,ESE,118,5.0,6.0,73,0.00,,SKC,0.00,VWS V14.01,2013-03-09 12:38:00,
2013-03-09 07:43:00,34.6,26.9,30.33,SE,135,2.0,6.0,73,0.00,,SKC,0.00,VWS V14.01,2013-03-09 12:43:00,
2013-03-09 07:48:00,34.6,26.9,30.33,ESE,122,2.0,6.0,73,0.00,,SKC,0.00,VWS V14.01,2013-03-09 12:48:00,
2013-03-09 07:53:00,34.7,26.6,30.33,SE,126,0.0,9.0,72,0.00,,SKC,0.00,VWS V14.01,2013-03-09 12:53:00,
2013-03-09 07:58:00,34.9,26.8,30.33,ESE,108,6.0,9.0,72,0.00,,SKC,0.00,VWS V14.01,2013-03-09 12:58:00,
2013-03-09 08:03:00,35.0,26.9,30.33,SE,126,4.0,6.0,72,0.00,,SKC,0.00,VWS V14.01,2013-03-09 13:03:00,
2013-03-09 08:08:00,35.0,26.6,30.33,ESE,123,1.0,7.0,71,0.00,,SKC,0.00,VWS V14.01,2013-03-09 13:08:00,
2013-03-09 08:13:00,35.2,26.8,30.33,ESE,112,8.0,9.0,71,0.00,,SKC,0.00,VWS V14.01,2013-03-09 13:13:00,
2013-03-09 08:18:00,35.3,26.5,30.33,ESE,115,5.0,14.0,70,0.00,,SKC,0.00,VWS V14.01,2013-03-09 13:18:00,
2013-03-09 08:23:00,35.5,26.7,30.33,ESE,118,3.0,14.0,70,0.00,,SKC,0.00,VWS V14.01,2013-03-09 13:23:00,
2013-03-09 08:28:00,35.6,26.8,30.33,SSE,148,4.0,14.0,70,0.00,,SKC,0.00,VWS V14.01,2013-03-09 13:28:00,
2013-03-09 08:33:00,35.8,26.6,30.33,ESE,115,6.0,6.0,69,0.00,,SKC,0.00,VWS V14.01,2013-03-09 13:33:00,
2013-03-09 08:38:00,35.9,26.7,30.33,SE,127,0.0,11.0,69,0.00,,SKC,0.00,VWS V14.01,2013-03-09 13:38:00,
2013-03-09 08:43:00,35.9,26.7,30.33,SE,125,8.0,12.0,69,0.00,,SKC,0.00,VWS V14.01,2013-03-09 13:43:00,
2013-03-09 08:49:00,36.2,27.0,30.33,SSE,149,3.0,12.0,69,0.00,,SKC,0.00,VWS V14.01,2013-03-09 13:49:00,
2013-03-09 08:54:00,36.5,27.0,30.33,ESE,108,1.0,12.0,68,0.00,,SKC,0.00,VWS V14.01,2013-03-09 13:54:00,
2013-03-09 08:59:00,36.8,27.2,30.33,East,86,6.0,12.0,68,0.00,,SKC,0.00,VWS V14.01,2013-03-09 13:59:00,
2013-03-09 09:04:00,36.8,26.9,30.32,ESE,107,5.0,6.0,67,0.00,,SKC,0.00,VWS V14.01,2013-03-09 14:04:00,
2013-03-09 09:09:00,37.2,27.3,30.32,East,95,6.0,11.0,67,0.00,,SKC,0.00,VWS V14.01,2013-03-09 14:09:00,
2013-03-09 09:14:00,37.3,27.4,30.32,ESE,103,3.0,13.0,67,0.00,,SKC,0.00,VWS V14.01,2013-03-09 14:14:00,
2013-03-09 09:19:00,37.8,27.5,30.32,East,98,3.0,15.0,66,0.00,,SKC,0.00,VWS V14.01,2013-03-09 14:19:00,
2013-03-09 09:24:00,37.8,27.1,30.32,ESE,106,7.0,15.0,65,0.00,,SKC,0.00,VWS V14.01,2013-03-09 14:24:00,
2013-03-09 09:29:00,37.8,27.1,30.32,East,101,6.0,16.0,65,0.00,,SKC,0.00,VWS V14.01,2013-03-09 14:29:00,
2013-03-09 09:34:00,38.2,27.5,30.31,SE,129,4.0,4.0,65,0.00,,SKC,0.00,VWS V14.01,2013-03-09 14:34:00,
2013-03-09 09:39:00,38.6,27.5,30.31,ESE,109,7.0,14.0,64,0.00,,SKC,0.00,VWS V14.01,2013-03-09 14:39:00,
2013-03-09 09:44:00,38.8,26.9,30.31,SE,124,4.0,16.0,62,0.00,,SKC,0.00,VWS V14.01,2013-03-09 14:44:00,
2013-03-09 09:49:00,39.3,27.8,30.30,SE,129,0.0,16.0,63,0.00,,SKC,0.00,VWS V14.01,2013-03-09 14:49:00,
2013-03-09 09:55:00,39.6,27.7,30.30,SE,141,0.0,16.0,62,0.00,,SKC,0.00,VWS V14.01,2013-03-09 14:55:00,
2013-03-09 10:00:00,39.3,27.4,30.30,East,94,7.0,16.0,62,0.00,,SKC,0.00,VWS V14.01,2013-03-09 15:00:00,
2013-03-09 10:05:00,39.9,27.6,30.31,ESE,115,13.0,14.0,61,0.00,,SKC,0.00,VWS V14.01,2013-03-09 15:05:00,
2013-03-09 10:10:00,40.2,27.8,30.31,East,99,7.0,14.0,61,0.00,,SKC,0.00,VWS V14.01,2013-03-09 15:10:00,
2013-03-09 10:15:00,40.1,27.4,30.31,ESE,118,4.0,14.0,60,0.00,,SKC,0.00,VWS V14.01,2013-03-09 15:15:00,
2013-03-09 10:20:00,40.5,27.3,30.31,SE,134,3.0,14.0,59,0.00,,SKC,0.00,VWS V14.01,2013-03-09 15:20:00,
2013-03-09 10:25:00,40.8,27.2,30.31,SE,142,5.0,15.0,58,0.00,,SKC,0.00,VWS V14.01,2013-03-09 15:25:00,
2013-03-09 10:30:00,41.1,27.5,30.31,ESE,123,6.0,15.0,58,0.00,,SKC,0.00,VWS V14.01,2013-03-09 15:30:00,
2013-03-09 10:35:00,41.1,27.5,30.31,SSW,210,11.0,12.0,58,0.00,,SKC,0.00,VWS V14.01,2013-03-09 15:35:00,
2013-03-09 10:40:00,41.1,27.5,30.31,SE,128,6.0,16.0,58,0.00,,SKC,0.00,VWS V14.01,2013-03-09 15:40:00,
2013-03-09 10:45:00,41.5,27.8,30.31,ESE,113,12.0,16.0,58,0.00,,SKC,0.00,VWS V14.01,2013-03-09 15:45:00,
2013-03-09 10:50:00,41.9,27.8,30.29,East,88,5.0,16.0,57,0.00,,SKC,0.00,VWS V14.01,2013-03-09 15:50:00,
2013-03-09 10:55:00,42.1,28.0,30.29,SSE,157,6.0,16.0,57,0.00,,SKC,0.00,VWS V14.01,2013-03-09 15:55:00,
2013-03-09 11:00:00,42.5,28.4,30.29,ESE,119,2.0,16.0,57,0.00,,SKC,0.00,VWS V14.01,2013-03-09 16:00:00,
2013-03-09 11:05:00,42.6,28.5,30.30,ESE,113,1.0,6.0,57,0.00,,SKC,0.00,VWS V14.01,2013-03-09 16:05:00,
2013-03-09 11:10:00,43.1,28.9,30.30,South,184,3.0,11.0,57,0.00,,SKC,0.00,VWS V14.01,2013-03-09 16:10:00,
2013-03-09 11:15:00,43.2,28.1,30.30,ESE,110,4.0,14.0,55,0.00,,SKC,0.00,VWS V14.01,2013-03-09 16:15:00,
2013-03-09 11:21:00,43.8,29.1,30.29,SSE,150,3.0,17.0,56,0.00,,SKC,0.00,VWS V14.01,2013-03-09 16:21:00,
2013-03-09 11:26:00,43.6,29.0,30.29,ESE,104,12.0,17.0,56,0.00,,SKC,0.00,VWS V14.01,2013-03-09 16:26:00,
2013-03-09 11:31:00,43.5,29.3,30.29,SE,124,6.0,17.0,57,0.00,,SKC,0.00,VWS V14.01,2013-03-09 16:31:00,
2013-03-09 11:36:00,43.5,29.3,30.28,East,94,0.0,11.0,57,0.00,,SKC,0.00,VWS V14.01,2013-03-09 16:36:00,
2013-03-09 11:41:00,43.8,29.1,30.28,ESE,116,5.0,11.0,56,0.00,,SKC,0.00,VWS V14.01,2013-03-09 16:41:00,
2013-03-09 11:46:00,43.6,29.4,30.28,ESE,120,6.0,12.0,57,0.00,,SKC,0.00,VWS V14.01,2013-03-09 16:46:00,
2013-03-09 11:51:00,43.8,29.1,30.27,East,83,2.0,12.0,56,0.00,,SKC,0.00,VWS V14.01,2013-03-09 16:51:00,
2013-03-09 11:56:00,43.8,29.6,30.27,SE,143,3.0,12.0,57,0.00,,SKC,0.00,VWS V14.01,2013-03-09 16:56:00,
2013-03-09 12:01:00,43.6,29.4,30.27,ESE,114,4.0,12.0,57,0.00,,SKC,0.00,VWS V14.01,2013-03-09 17:01:00,
2013-03-09 12:06:00,43.9,30.1,30.27,East,79,7.0,13.0,58,0.00,,SKC,0.00,VWS V14.01,2013-03-09 17:06:00,
2013-03-09 12:11:00,44.2,30.4,30.27,East,98,2.0,13.0,58,0.00,,SKC,0.00,VWS V14.01,2013-03-09 17:11:00,
2013-03-09 12:17:00,44.9,31.0,30.27,East,98,5.0,13.0,58,0.00,,SKC,0.00,VWS V14.01,2013-03-09 17:17:00,
2013-03-09 12:22:00,45.1,31.2,30.25,SE,142,6.0,13.0,58,0.00,,SKC,0.00,VWS V14.01,2013-03-09 17:22:00,
2013-03-09 12:27:00,45.2,31.3,30.25,ESE,115,2.0,13.0,58,0.00,,SKC,0.00,VWS V14.01,2013-03-09 17:27:00,
2013-03-09 12:32:00,45.7,31.4,30.25,East,97,5.0,13.0,57,0.00,,SKC,0.00,VWS V14.01,2013-03-09 17:32:00,
2013-03-09 12:37:00,46.0,31.2,30.25,ESE,109,6.0,12.0,56,0.00,,SKC,0.00,VWS V14.01,2013-03-09 17:37:00,
2013-03-09 12:42:00,45.5,30.7,30.25,SE,124,3.0,13.0,56,0.00,,SKC,0.00,VWS V14.01,2013-03-09 17:42:00,
2013-03-09 12:47:00,46.1,31.7,30.25,SSE,148,4.0,13.0,57,0.00,,SKC,0.00,VWS V14.01,2013-03-09 17:47:00,
2013-03-09 12:52:00,46.4,32.0,30.23,East,98,9.0,13.0,57,0.00,,SKC,0.00,VWS V14.01,2013-03-09 17:52:00,
2013-03-09 12:57:00,46.2,31.8,30.23,ESE,116,7.0,13.0,57,0.00,,SKC,0.00,VWS V14.01,2013-03-09 17:57:00,
2013-03-09 13:02:00,46.5,31.7,30.22,East,99,6.0,14.0,56,0.00,,SKC,0.00,VWS V14.01,2013-03-09 18:02:00,
2013-03-09 13:07:00,46.7,31.4,30.22,SSE,152,4.0,15.0,55,0.00,,SKC,0.00,VWS V14.01,2013-03-09 18:07:00,
2013-03-09 13:12:00,47.0,31.2,30.22,ESE,118,3.0,15.0,54,0.00,,SKC,0.00,VWS V14.01,2013-03-09 18:12:00,
2013-03-09 13:17:00,47.3,31.5,30.21,SSE,167,2.0,15.0,54,0.00,,SKC,0.00,VWS V14.01,2013-03-09 18:17:00,
2013-03-09 13:22:00,47.3,31.5,30.21,ESE,122,11.0,15.0,54,0.00,,SKC,0.00,VWS V14.01,2013-03-09 18:22:00,
2013-03-09 13:27:00,47.3,31.5,30.21,ESE,105,3.0,15.0,54,0.00,,SKC,0.00,VWS V14.01,2013-03-09 18:27:00,
2013-03-09 13:32:00,47.1,31.3,30.20,ESE,121,10.0,15.0,54,0.00,,SKC,0.00,VWS V14.01,2013-03-09 18:32:00,
2013-03-09 13:38:00,47.4,32.1,30.20,SE,131,0.0,11.0,55,0.00,,SKC,0.00,VWS V14.01,2013-03-09 18:38:00,
2013-03-09 13:43:00,47.9,32.1,30.20,East,81,3.0,12.0,54,0.00,,SKC,0.00,VWS V14.01,2013-03-09 18:43:00,
2013-03-09 13:48:00,47.4,31.6,30.19,SE,140,9.0,16.0,54,0.00,,SKC,0.00,VWS V14.01,2013-03-09 18:48:00,
2013-03-09 13:53:00,47.6,31.8,30.19,SE,145,4.0,16.0,54,0.00,,SKC,0.00,VWS V14.01,2013-03-09 18:53:00,
2013-03-09 13:58:00,47.9,32.5,30.19,ESE,107,4.0,16.0,55,0.00,,SKC,0.00,VWS V14.01,2013-03-09 18:58:00,
2013-03-09 14:03:00,48.0,32.2,30.18,ESE,117,10.0,16.0,54,0.00,,SKC,0.00,VWS V14.01,2013-03-09 19:03:00,
2013-03-09 14:08:00,48.5,32.6,30.18,SSE,147,5.0,10.0,54,0.00,,SKC,0.00,VWS V14.01,2013-03-09 19:08:00,
2013-03-09 14:13:00,48.8,32.9,30.18,SSE,151,10.0,13.0,54,0.00,,SKC,0.00,VWS V14.01,2013-03-09 19:13:00,
2013-03-09 14:18:00,49.1,33.2,30.17,East,100,8.0,13.0,54,0.00,,SKC,0.00,VWS V14.01,2013-03-09 19:18:00,
2013-03-09 14:23:00,49.6,33.2,30.17,SE,132,13.0,13.0,53,0.00,,SKC,0.00,VWS V14.01,2013-03-09 19:23:00,
2013-03-09 14:28:00,49.6,32.2,30.17,ESE,113,14.0,17.0,51,0.00,,SKC,0.00,VWS V14.01,2013-03-09 19:28:00,
2013-03-09 14:33:00,49.4,32.5,30.17,ESE,119,3.0,17.0,52,0.00,,SKC,0.00,VWS V14.01,2013-03-09 19:33:00,
2013-03-09 14:38:00,49.8,31.9,30.17,SE,128,10.0,12.0,50,0.00,,SKC,0.00,VWS V14.01,2013-03-09 19:38:00,
2013-03-09 14:43:00,49.6,31.7,30.17,South,172,4.0,12.0,50,0.00,,SKC,0.00,VWS V14.01,2013-03-09 19:43:00,
2013-03-09 14:48:00,49.8,32.9,30.16,SE,134,3.0,12.0,52,0.00,,SKC,0.00,VWS V14.01,2013-03-09 19:48:00,
2013-03-09 14:53:00,49.8,32.9,30.16,SE,127,6.0,13.0,52,0.00,,SKC,0.00,VWS V14.01,2013-03-09 19:53:00,
2013-03-09 14:58:00,49.8,32.9,30.16,ESE,102,3.0,13.0,52,0.00,,SKC,0.00,VWS V14.01,2013-03-09 19:58:00,
2013-03-09 15:03:00,49.9,33.5,30.15,SE,129,7.0,7.0,53,0.00,,SKC,0.00,VWS V14.01,2013-03-09 20:03:00,
2013-03-09 15:08:00,49.9,33.5,30.15,SE,136,1.0,12.0,53,0.00,,SKC,0.00,VWS V14.01,2013-03-09 20:08:00,
2013-03-09 15:13:00,49.9,33.5,30.15,SE,143,9.0,12.0,53,0.00,,SKC,0.00,VWS V14.01,2013-03-09 20:13:00,
2013-03-09 15:19:00,49.9,33.9,30.14,East,96,3.0,12.0,54,0.00,,SKC,0.00,VWS V14.01,2013-03-09 20:19:00,
2013-03-09 15:24:00,50.1,33.7,30.14,SSE,153,0.0,12.0,53,0.00,,SKC,0.00,VWS V14.01,2013-03-09 20:24:00,
2013-03-09 15:29:00,50.2,33.3,30.14,SSE,149,6.0,12.0,52,0.00,,SKC,0.00,VWS V14.01,2013-03-09 20:29:00,
2013-03-09 15:34:00,50.2,32.3,30.14,ESE,122,6.0,9.0,50,0.00,,SKC,0.00,VWS V14.01,2013-03-09 20:34:00,
2013-03-09 15:39:00,50.4,32.5,30.14,SE,137,1.0,12.0,50,0.00,,SKC,0.00,VWS V14.01,2013-03-09 20:39:00,
2013-03-09 15:44:00,50.5,33.1,30.14,ESE,118,10.0,12.0,51,0.00,,SKC,0.00,VWS V14.01,2013-03-09 20:44:00,
2013-03-09 15:49:00,50.5,33.1,30.12,ESE,123,4.0,12.0,51,0.00,,SKC,0.00,VWS V14.01,2013-03-09 20:49:00,
2013-03-09 15:54:00,50.5,33.1,30.12,East,98,4.0,13.0,51,0.00,,SKC,0.00,VWS V14.01,2013-03-09 20:54:00,
2013-03-09 15:59:00,50.5,33.1,30.12,ESE,123,4.0,13.0,51,0.00,,SKC,0.00,VWS V14.01,2013-03-09 20:59:00,
2013-03-09 16:04:00,50.7,33.7,30.12,SE,144,0.0,6.0,52,0.00,,SKC,0.00,VWS V14.01,2013-03-09 21:04:00,
2013-03-09 16:09:00,50.7,33.7,30.12,ESE,111,11.0,12.0,52,0.00,,SKC,0.00,VWS V14.01,2013-03-09 21:09:00,
2013-03-09 16:14:00,50.8,34.3,30.12,ESE,122,7.0,12.0,53,0.00,,SKC,0.00,VWS V14.01,2013-03-09 21:14:00,
2013-03-09 16:19:00,50.8,34.3,30.11,ESE,122,5.0,12.0,53,0.00,,SKC,0.00,VWS V14.01,2013-03-09 21:19:00,
2013-03-09 16:24:00,50.8,33.8,30.11,SE,139,11.0,12.0,52,0.00,,SKC,0.00,VWS V14.01,2013-03-09 21:24:00,
2013-03-09 16:29:00,51.0,34.0,30.11,SE,131,7.0,14.0,52,0.00,,SKC,0.00,VWS V14.01,2013-03-09 21:29:00,
2013-03-09 16:34:00,51.0,34.0,30.10,SSE,155,1.0,12.0,52,0.00,,SKC,0.00,VWS V14.01,2013-03-09 21:34:00,
2013-03-09 16:40:00,51.0,34.5,30.10,ESE,104,6.0,12.0,53,0.00,,SKC,0.00,VWS V14.01,2013-03-09 21:40:00,
2013-03-09 16:44:00,51.0,35.0,30.10,ESE,116,2.0,12.0,54,0.00,,SKC,0.00,VWS V14.01,2013-03-09 21:44:00,
2013-03-09 16:49:00,51.1,34.6,30.10,SE,128,3.0,12.0,53,0.00,,SKC,0.00,VWS V14.01,2013-03-09 21:49:00,
2013-03-09 16:55:00,51.1,35.0,30.10,SE,134,4.0,12.0,54,0.00,,SKC,0.00,VWS V14.01,2013-03-09 21:55:00,
2013-03-09 17:00:00,51.0,35.0,30.10,East,86,2.0,12.0,54,0.00,,SKC,0.00,VWS V14.01,2013-03-09 22:00:00,
2013-03-09 17:05:00,51.1,35.0,30.09,SE,143,9.0,9.0,54,0.00,,SKC,0.00,VWS V14.01,2013-03-09 22:05:00,
2013-03-09 17:10:00,51.3,35.2,30.09,SE,146,8.0,9.0,54,0.00,,SKC,0.00,VWS V14.01,2013-03-09 22:10:00,
2013-03-09 17:15:00,51.4,34.9,30.09,ESE,116,0.0,9.0,53,0.00,,SKC,0.00,VWS V14.01,2013-03-09 22:15:00,
2013-03-09 17:20:00,51.4,34.9,30.09,ESE,123,4.0,12.0,53,0.00,,SKC,0.00,VWS V14.01,2013-03-09 22:20:00,
2013-03-09 17:25:00,51.4,34.9,30.09,ESE,109,1.0,12.0,53,0.00,,SKC,0.00,VWS V14.01,2013-03-09 22:25:00,
2013-03-09 17:30:00,51.4,34.4,30.09,SE,127,7.0,12.0,52,0.00,,SKC,0.00,VWS V14.01,2013-03-09 22:30:00,
2013-03-09 17:35:00,51.6,34.1,30.09,SE,139,0.0,7.0,51,0.00,,SKC,0.00,VWS V14.01,2013-03-09 22:35:00,
2013-03-09 17:40:00,51.6,34.1,30.09,SE,127,12.0,12.0,51,0.00,,SKC,0.00,VWS V14.01,2013-03-09 22:40:00,
2013-03-09 17:45:00,51.6,33.6,30.09,ESE,105,0.0,14.0,50,0.00,,SKC,0.00,VWS V14.01,2013-03-09 22:45:00,
2013-03-09 17:50:00,51.6,33.6,30.08,ESE,114,3.0,14.0,50,0.00,,SKC,0.00,VWS V14.01,2013-03-09 22:50:00,
2013-03-09 17:56:00,51.6,33.6,30.08,ESE,110,5.0,14.0,50,0.00,,SKC,0.00,VWS V14.01,2013-03-09 22:56:00,
2013-03-09 18:01:00,51.6,33.6,30.08,ESE,107,8.0,14.0,50,0.00,,SKC,0.00,VWS V14.01,2013-03-09 23:01:00,
2013-03-09 18:06:00,51.4,33.9,30.08,SE,133,3.0,9.0,51,0.00,,SKC,0.00,VWS V14.01,2013-03-09 23:06:00,
2013-03-09 18:11:00,51.4,33.9,30.08,ESE,110,0.0,9.0,51,0.00,,SKC,0.00,VWS V14.01,2013-03-09 23:11:00,
2013-03-09 18:16:00,51.4,33.9,30.08,ESE,115,3.0,9.0,51,0.00,,SKC,0.00,VWS V14.01,2013-03-09 23:16:00,
2013-03-09 18:21:00,51.4,33.9,30.08,ESE,108,4.0,10.0,51,0.00,,SKC,0.00,VWS V14.01,2013-03-09 23:21:00,
2013-03-09 18:26:00,51.4,34.4,30.08,ESE,118,1.0,11.0,52,0.00,,SKC,0.00,VWS V14.01,2013-03-09 23:26:00,
2013-03-09 18:31:00,51.3,34.3,30.08,ESE,122,10.0,11.0,52,0.00,,SKC,0.00,VWS V14.01,2013-03-09 23:31:00,
2013-03-09 18:36:00,51.3,34.3,30.07,ESE,113,2.0,11.0,52,0.00,,SKC,0.00,VWS V14.01,2013-03-09 23:36:00,
2013-03-09 18:41:00,51.1,34.1,30.07,SE,128,5.0,11.0,52,0.00,,SKC,0.00,VWS V14.01,2013-03-09 23:41:00,
2013-03-09 18:46:00,51.1,34.1,30.07,SE,143,5.0,11.0,52,0.00,,SKC,0.00,VWS V14.01,2013-03-09 23:46:00,
2013-03-09 18:51:00,51.0,34.0,30.07,SE,126,3.0,11.0,52,0.00,,SKC,0.00,VWS V14.01,2013-03-09 23:51:00,
2013-03-09 18:56:00,51.0,34.5,30.07,ESE,119,1.0,11.0,53,0.00,,SKC,0.00,VWS V14.01,2013-03-09 23:56:00,
2013-03-09 19:02:00,50.8,34.3,30.07,SE,124,1.0,11.0,53,0.00,,SKC,0.00,VWS V14.01,2013-03-10 00:02:00,
2013-03-09 19:07:00,50.8,34.3,30.07,ESE,120,6.0,6.0,53,0.00,,SKC,0.00,VWS V14.01,2013-03-10 00:07:00,
2013-03-09 19:12:00,50.7,34.2,30.07,ESE,113,2.0,7.0,53,0.00,,SKC,0.00,VWS V14.01,2013-03-10 00:12:00,
2013-03-09 19:17:00,50.7,34.7,30.07,SE,134,3.0,7.0,54,0.00,,SKC,0.00,VWS V14.01,2013-03-10 00:17:00,
2013-03-09 19:22:00,50.5,34.5,30.06,SE,132,4.0,7.0,54,0.00,,SKC,0.00,VWS V14.01,2013-03-10 00:22:00,
2013-03-09 19:27:00,50.5,34.5,30.06,SE,131,3.0,9.0,54,0.00,,SKC,0.00,VWS V14.01,2013-03-10 00:27:00,
2013-03-09 19:32:00,50.5,34.0,30.06,ESE,114,6.0,9.0,53,0.00,,SKC,0.00,VWS V14.01,2013-03-10 00:32:00,
2013-03-09 19:37:00,50.5,34.0,30.06,ESE,113,0.0,8.0,53,0.00,,SKC,0.00,VWS V14.01,2013-03-10 00:37:00,
2013-03-09 19:42:00,50.5,33.5,30.06,ESE,117,7.0,8.0,52,0.00,,SKC,0.00,VWS V14.01,2013-03-10 00:42:00,
2013-03-09 19:47:00,50.7,33.7,30.05,ESE,120,4.0,8.0,52,0.00,,SKC,0.00,VWS V14.01,2013-03-10 00:47:00,
2013-03-09 19:53:00,50.7,33.2,30.05,SE,139,1.0,10.0,51,0.00,,SKC,0.00,VWS V14.01,2013-03-10 00:53:00,
2013-03-09 19:58:00,50.8,33.3,30.05,East,81,2.0,11.0,51,0.00,,SKC,0.00,VWS V14.01,2013-03-10 00:58:00,
2013-03-09 20:03:00,50.8,32.8,30.05,SSE,158,6.0,11.0,50,0.00,,SKC,0.00,VWS V14.01,2013-03-10 01:03:00,
2013-03-09 20:08:00,51.0,33.0,30.05,ESE,118,4.0,7.0,50,0.00,,SKC,0.00,VWS V14.01,2013-03-10 01:08:00,
2013-03-09 20:13:00,51.0,33.0,30.05,ESE,122,4.0,12.0,50,0.00,,SKC,0.00,VWS V14.01,2013-03-10 01:13:00,
2013-03-09 20:18:00,51.1,33.1,30.05,SE,132,2.0,12.0,50,0.00,,SKC,0.00,VWS V14.01,2013-03-10 01:18:00,
2013-03-09 20:23:00,51.1,33.1,30.05,ESE,110,9.0,12.0,50,0.00,,SKC,0.00,VWS V14.01,2013-03-10 01:23:00,
2013-03-09 20:28:00,51.1,33.1,30.05,SE,128,3.0,12.0,50,0.00,,SKC,0.00,VWS V14.01,2013-03-10 01:28:00,
2013-03-09 20:33:00,51.1,33.1,30.03,ESE,117,1.0,1.0,50,0.00,,SKC,0.00,VWS V14.01,2013-03-10 01:33:00,
2013-03-09 20:38:00,51.1,33.1,30.03,SE,142,3.0,9.0,50,0.00,,SKC,0.00,VWS V14.01,2013-03-10 01:38:00,
2013-03-09 20:43:00,51.1,33.1,30.03,SE,129,9.0,10.0,50,0.00,,SKC,0.00,VWS V14.01,2013-03-10 01:43:00,
2013-03-09 20:48:00,51.1,33.1,30.03,ESE,114,7.0,10.0,50,0.00,,SKC,0.00,VWS V14.01,2013-03-10 01:48:00,
2013-03-09 20:53:00,51.3,33.3,30.03,ESE,114,7.0,11.0,50,0.00,,SKC,0.00,VWS V14.01,2013-03-10 01:53:00,
2013-03-09 20:59:00,51.3,33.3,30.03,SE,132,0.0,11.0,50,0.00,,SKC,0.00,VWS V14.01,2013-03-10 01:59:00,
2013-03-09 21:04:00,51.1,33.6,30.03,ESE,119,2.0,4.0,51,0.00,,SKC,0.00,VWS V14.01,2013-03-10 02:04:00,
2013-03-09 21:09:00,51.1,33.6,30.03,SE,124,3.0,8.0,51,0.00,,SKC,0.00,VWS V14.01,2013-03-10 02:09:00,
2013-03-09 21:14:00,51.0,33.5,30.03,SE,141,5.0,10.0,51,0.00,,SKC,0.00,VWS V14.01,2013-03-10 02:14:00,
2013-03-09 21:19:00,50.8,33.3,30.02,SE,135,1.0,12.0,51,0.00,,SKC,0.00,VWS V14.01,2013-03-10 02:19:00,
2013-03-09 21:24:00,50.7,33.7,30.02,SE,129,6.0,12.0,52,0.00,,SKC,0.00,VWS V14.01,2013-03-10 02:24:00,
2013-03-09 21:29:00,50.7,33.7,30.02,SE,132,3.0,12.0,52,0.00,,SKC,0.00,VWS V14.01,2013-03-10 02:29:00,
2013-03-09 21:34:00,50.5,33.5,30.02,SE,135,10.0,10.0,52,0.00,,SKC,0.00,VWS V14.01,2013-03-10 02:34:00,
2013-03-09 21:39:00,50.4,33.5,30.02,SE,131,3.0,10.0,52,0.00,,SKC,0.00,VWS V14.01,2013-03-10 02:39:00,
2013-03-09 21:44:00,50.2,33.3,30.02,ESE,115,4.0,10.0,52,0.00,,SKC,0.00,VWS V14.01,2013-03-10 02:44:00,
2013-03-09 21:49:00,50.1,33.2,30.01,SSE,151,0.0,10.0,52,0.00,,SKC,0.00,VWS V14.01,2013-03-10 02:49:00,
2013-03-09 21:54:00,50.1,33.2,30.01,SE,146,4.0,10.0,52,0.00,,SKC,0.00,VWS V14.01,2013-03-10 02:54:00,
2013-03-09 21:59:00,50.1,33.2,30.01,ESE,103,6.0,13.0,52,0.00,,SKC,0.00,VWS V14.01,2013-03-10 02:59:00,
2013-03-09 22:04:00,50.2,33.3,30.01,SSE,155,8.0,12.0,52,0.00,,SKC,0.00,VWS V14.01,2013-03-10 03:04:00,
2013-03-09 22:09:00,50.2,33.3,30.01,SE,134,3.0,13.0,52,0.00,,SKC,0.00,VWS V14.01,2013-03-10 03:09:00,
2013-03-09 22:14:00,50.2,33.3,30.01,SE,142,2.0,13.0,52,0.00,,SKC,0.00,VWS V14.01,2013-03-10 03:14:00,
2013-03-09 22:19:00,50.2,33.3,30.01,ESE,108,0.0,13.0,52,0.00,,SKC,0.00,VWS V14.01,2013-03-10 03:19:00,
2013-03-09 22:25:00,50.2,33.3,30.01,SE,141,0.0,13.0,52,0.00,,SKC,0.00,VWS V14.01,2013-03-10 03:25:00,
2013-03-09 22:30:00,50.4,33.5,30.01,SE,131,3.0,13.0,52,0.00,,SKC,0.00,VWS V14.01,2013-03-10 03:30:00,
2013-03-09 22:35:00,50.4,33.5,30.00,SSE,148,1.0,3.0,52,0.00,,SKC,0.00,VWS V14.01,2013-03-10 03:35:00,
2013-03-09 22:40:00,50.4,33.0,30.00,SSE,159,0.0,9.0,51,0.00,,SKC,0.00,VWS V14.01,2013-03-10 03:40:00,
2013-03-09 22:45:00,50.5,33.1,30.00,SSE,166,5.0,9.0,51,0.00,,SKC,0.00,VWS V14.01,2013-03-10 03:45:00,
2013-03-09 22:50:00,50.7,33.2,30.00,SSE,158,4.0,12.0,51,0.00,,SKC,0.00,VWS V14.01,2013-03-10 03:50:00,
2013-03-09 22:55:00,50.8,32.8,30.00,SSE,149,2.0,12.0,50,0.00,,SKC,0.00,VWS V14.01,2013-03-10 03:55:00,
2013-03-09 23:00:00,51.0,33.0,30.00,SSE,163,5.0,12.0,50,0.00,,SKC,0.00,VWS V14.01,2013-03-10 04:00:00,
2013-03-09 23:05:00,51.1,32.6,29.99,SE,146,3.0,11.0,49,0.00,,SKC,0.00,VWS V14.01,2013-03-10 04:05:00,
2013-03-09 23:10:00,51.3,33.3,29.99,SE,136,5.0,11.0,50,0.00,,SKC,0.00,VWS V14.01,2013-03-10 04:10:00,
2013-03-09 23:15:00,51.3,32.8,29.99,SSW,192,0.0,11.0,49,0.00,,SKC,0.00,VWS V14.01,2013-03-10 04:15:00,
2013-03-09 23:20:00,51.4,32.9,29.98,South,172,4.0,11.0,49,0.00,,SKC,0.00,VWS V14.01,2013-03-10 04:20:00,
2013-03-09 23:25:00,51.4,32.9,29.98,South,183,0.0,11.0,49,0.00,,SKC,0.00,VWS V14.01,2013-03-10 04:25:00,
2013-03-09 23:30:00,51.6,32.6,29.98,SE,138,5.0,13.0,48,0.00,,SKC,0.00,VWS V14.01,2013-03-10 04:30:00,
2013-03-09 23:35:00,51.7,32.7,29.98,SSE,156,0.0,6.0,48,0.00,,SKC,0.00,VWS V14.01,2013-03-10 04:35:00,
2013-03-09 23:40:00,52.0,32.4,29.98,SE,126,2.0,11.0,47,0.00,,SKC,0.00,VWS V14.01,2013-03-10 04:40:00,
2013-03-09 23:45:00,52.2,32.6,29.98,SE,143,4.0,11.0,47,0.00,,SKC,0.00,VWS V14.01,2013-03-10 04:45:00,
2013-03-09 23:50:00,52.2,32.6,29.98,SE,124,4.0,11.0,47,0.00,,SKC,0.00,VWS V14.01,2013-03-10 04:50:00,
2013-03-09 23:56:00,52.5,32.3,29.98,SE,144,2.0,11.0,46,0.00,,SKC,0.00,VWS V14.01,2013-03-10 04:56:00,